Terminal Aerodrome Forecast
Issued by NWS

Home | Current Version | Previous Version | Text Only | Print | Product List | Glossary On
Versions: 1 2 3 4 5 6 7 8 9 10 11 12 13 14 15 16 17 18 19 20 21 22 23 24 25 26 27 28 29 30 31 32 33 34
000
FTAK31 PANC 240043 AAA
TAFADL
TAF AMD
PADL 240043Z 2401/2424 17008KT P6SM SCT030 BKN040
      TEMPO 2401/2403 BKN030
     FM241000 VRB04KT P6SM BKN015
     FM241800 18009KT P6SM SCT015 SCT050=

USA.gov is the U.S. government's official web portal to all federal, state and local government web resources and services.